Location: *
(46.1200°N, 11.2700°E)
Time: 12:18:19
(UTC+00:00)

Resurs 01 Rocket - Pass Details

Date: 02 March 2021
Orbit: 635 x 643 km, 98.0° (Epoch: 18 April)

Event Time Altitude Azimuth Distance (km) Brightness Sun altitude
Exits shadow 18:49:22 20° 40° (NE) 1,478 3.2 -19.2°
Drops below altitude 10° 18:51:33 10° 13° (NNE) 2,034 4.2 -19.6°
Sets 18:54:07 0° 359° (N) 2,948 5.2 -20.0°
